When you browse on this site, cookies collect data to enhance your experience and personalize the content and advertising you see.
Visit our Privacy Policy to learn more. By continuing to use the site, you agree to this use of cookies and data.
  • In Hungary
  • List of Countries
  • For 7 days
  • Water Temperature
  • Satellite Maps
  • Weather Map
  • News
  • Weather Widgets
  • user-avatar
    Login

    Hourly Weather Rodniki

    Today, 25 May, Saturday

    Time Temperature Precipitation Wind Pressure Humidity
    00:00 +5°C° 0 mm 1 mps 753 mmHg 68%
    01:00 +4°C° 0 mm 1 mps 753 mmHg 68%
    02:00 +4°C° 0 mm 1 mps 754 mmHg 68%
    03:00 +4°C° 0 mm 1 mps 754 mmHg 68%
    04:00 +4°C° 0 mm 0 mps 754 mmHg 66%
    05:00 +5°C° 0 mm 0 mps 755 mmHg 64%
    06:00 +6°C° 0 mm 0 mps 755 mmHg 62%
    07:00 +7°C° 0 mm 0 mps 755 mmHg 58%
    08:00 +9°C° 0 mm 0 mps 756 mmHg 53%
    09:00 +10°C° 0 mm 0 mps 756 mmHg 49%
    10:00 +12°C° 0 mm 1 mps 756 mmHg 48%
    11:00 +12°C° 0 mm 1 mps 756 mmHg 46%
    12:00 +13°C° 0 mm 1 mps 755 mmHg 44%
    13:00 +13°C° 0 mm 1 mps 755 mmHg 44%
    14:00 +14°C° 0 mm 1 mps 755 mmHg 44%
    15:00 +14°C° 0 mm 1 mps 754 mmHg 44%
    16:00 +14°C° 0 mm 1 mps 754 mmHg 50%
    17:00 +14°C° 0 mm 1 mps 754 mmHg 55%
    18:00 +14°C° 0 mm 1 mps 754 mmHg 60%
    19:00 +12°C° 0 mm 2 mps 754 mmHg 63%
    20:00 +10°C° 0 mm 2 mps 754 mmHg 66%
    21:00 +8°C° 0 mm 3 mps 754 mmHg 69%
    22:00 +8°C° 0 mm 3 mps 754 mmHg 70%
    23:00 +7°C° 0 mm 3 mps 754 mmHg 70%

    Tomorrow, 26 May, Sunday

    Time Temperature Precipitation Wind Pressure Humidity
    00:00 +7°C° 0 mm 3 mps 754 mmHg 70%
    01:00 +6°C° 0 mm 4 mps 754 mmHg 70%
    02:00 +5°C° 0 mm 4 mps 753 mmHg 70%
    03:00 +5°C° 0 mm 4 mps 753 mmHg 70%
    04:00 +6°C° 0 mm 5 mps 753 mmHg 69%
    05:00 +7°C° 0 mm 5 mps 753 mmHg 69%
    06:00 +8°C° 0 mm 6 mps 753 mmHg 68%
    07:00 +10°C° 0 mm 6 mps 752 mmHg 65%
    08:00 +11°C° 0 mm 7 mps 752 mmHg 61%
    09:00 +14°C° 0 mm 7 mps 752 mmHg 58%
    10:00 +15°C° 0 mm 7 mps 751 mmHg 56%
    11:00 +16°C° 0 mm 7 mps 751 mmHg 54%
    12:00 +17°C° 0 mm 7 mps 751 mmHg 53%
    13:00 +19°C° 0 mm 6 mps 750 mmHg 53%
    14:00 +19°C° 0 mm 6 mps 750 mmHg 54%
    15:00 +20°C° 0 mm 6 mps 749 mmHg 55%
    16:00 +19°C° 0 mm 6 mps 749 mmHg 61%
    17:00 +17°C° 0 mm 5 mps 748 mmHg 67%
    18:00 +17°C° 0 mm 4 mps 748 mmHg 72%
    19:00 +16°C° 0 mm 5 mps 747 mmHg 73%
    20:00 +16°C° 0 mm 5 mps 747 mmHg 74%
    21:00 +16°C° 0 mm 5 mps 747 mmHg 75%
    22:00 +15°C° 0.5 mm 5 mps 747 mmHg 78%
    23:00 +15°C° 0.5 mm 5 mps 746 mmHg 81%

    Day after tomorrow, 27 May, Monday

    Time Temperature Precipitation Wind Pressure Humidity
    00:00 +14°C° 0.5 mm 5 mps 746 mmHg 84%
    01:00 +14°C° 0.2 mm 6 mps 746 mmHg 85%
    02:00 +14°C° 0.2 mm 6 mps 746 mmHg 87%
    03:00 +13°C° 0.2 mm 6 mps 745 mmHg 88%
    04:00 +14°C° 0.3 mm 6 mps 745 mmHg 88%
    05:00 +14°C° 0.3 mm 7 mps 745 mmHg 89%
    06:00 +14°C° 0.3 mm 7 mps 745 mmHg 90%
    07:00 +15°C° 0.4 mm 7 mps 745 mmHg 90%
    08:00 +15°C° 0.4 mm 7 mps 745 mmHg 90%
    09:00 +16°C° 0.4 mm 7 mps 745 mmHg 90%
    10:00 +16°C° 0.1 mm 7 mps 746 mmHg 88%
    11:00 +17°C° 0.1 mm 7 mps 746 mmHg 87%
    12:00 +17°C° 0.1 mm 7 mps 746 mmHg 85%
    13:00 +18°C° 0.3 mm 7 mps 746 mmHg 83%
    14:00 +20°C° 0.3 mm 6 mps 746 mmHg 81%
    15:00 +21°C° 0.3 mm 6 mps 746 mmHg 79%
    16:00 +20°C° 0.3 mm 5 mps 747 mmHg 80%
    17:00 +20°C° 0.3 mm 4 mps 747 mmHg 82%
    18:00 +20°C° 0.3 mm 3 mps 747 mmHg 83%
    19:00 +19°C° 0 mm 3 mps 748 mmHg 85%
    20:00 +17°C° 0 mm 3 mps 748 mmHg 88%
    21:00 +16°C° 0 mm 3 mps 749 mmHg 90%
    22:00 +14°C° 0 mm 3 mps 749 mmHg 90%
    23:00 +14°C° 0 mm 3 mps 749 mmHg 90%

    28 May, Tuesday

    Time Temperature Precipitation Wind Pressure Humidity
    00:00 +13°C° 0 mm 3 mps 750 mmHg 90%
    01:00 +13°C° 0 mm 2 mps 750 mmHg 90%
    02:00 +13°C° 0 mm 2 mps 751 mmHg 89%
    03:00 +12°C° 0 mm 2 mps 751 mmHg 88%
    04:00 +13°C° 0 mm 2 mps 752 mmHg 86%
    05:00 +14°C° 0 mm 2 mps 752 mmHg 83%
    06:00 +15°C° 0 mm 2 mps 752 mmHg 81%
    07:00 +17°C° 0 mm 2 mps 753 mmHg 75%
    08:00 +18°C° 0 mm 2 mps 753 mmHg 70%
    09:00 +19°C° 0 mm 2 mps 753 mmHg 65%
    10:00 +20°C° 0 mm 2 mps 753 mmHg 62%
    11:00 +21°C° 0 mm 3 mps 753 mmHg 59%
    12:00 +22°C° 0 mm 3 mps 753 mmHg 56%
    13:00 +22°C° 0 mm 3 mps 753 mmHg 57%
    14:00 +22°C° 0 mm 3 mps 753 mmHg 58%
    15:00 +23°C° 0 mm 4 mps 753 mmHg 59%
    16:00 +22°C° 0 mm 3 mps 753 mmHg 63%
    17:00 +22°C° 0 mm 3 mps 753 mmHg 67%
    18:00 +21°C° 0 mm 2 mps 753 mmHg 72%
    19:00 +20°C° 0 mm 2 mps 753 mmHg 75%
    20:00 +19°C° 0 mm 2 mps 753 mmHg 78%
    21:00 +17°C° 0 mm 3 mps 754 mmHg 81%
    22:00 +17°C° 0 mm 3 mps 754 mmHg 83%
    23:00 +17°C° 0 mm 3 mps 754 mmHg 85%

    29 May, Wednesday

    Time Temperature Precipitation Wind Pressure Humidity
    00:00 +16°C° 0 mm 3 mps 754 mmHg 87%
    01:00 +16°C° 0 mm 3 mps 754 mmHg 89%
    02:00 +16°C° 0 mm 3 mps 754 mmHg 90%
    03:00 +14°C° 0 mm 3 mps 754 mmHg 92%
    04:00 +16°C° 0 mm 3 mps 754 mmHg 90%
    05:00 +17°C° 0 mm 3 mps 755 mmHg 87%
    06:00 +18°C° 0 mm 3 mps 755 mmHg 85%
    07:00 +20°C° 0 mm 3 mps 755 mmHg 80%
    08:00 +21°C° 0 mm 3 mps 755 mmHg 76%
    09:00 +24°C° 0 mm 3 mps 755 mmHg 71%
    10:00 +24°C° 0 mm 3 mps 755 mmHg 68%
    11:00 +25°C° 0 mm 4 mps 754 mmHg 65%
    12:00 +26°C° 0 mm 4 mps 754 mmHg 62%
    13:00 +26°C° 0 mm 4 mps 754 mmHg 61%
    14:00 +27°C° 0 mm 4 mps 754 mmHg 61%
    15:00 +27°C° 0 mm 4 mps 754 mmHg 61%
    16:00 +26°C° 0 mm 4 mps 754 mmHg 65%
    17:00 +26°C° 0 mm 3 mps 754 mmHg 69%
    18:00 +25°C° 0 mm 3 mps 754 mmHg 74%
    19:00 +24°C° 0 mm 3 mps 754 mmHg 77%
    20:00 +22°C° 0 mm 3 mps 754 mmHg 81%
    21:00 +20°C° 0 mm 3 mps 754 mmHg 85%
    22:00 +20°C° 0 mm 3 mps 754 mmHg 86%
    23:00 +19°C° 0 mm 3 mps 754 mmHg 87%

    30 May, Thursday

    Time Temperature Precipitation Wind Pressure Humidity
    00:00 +18°C° 0 mm 3 mps 754 mmHg 89%
    01:00 +18°C° 0 mm 3 mps 754 mmHg 90%
    02:00 +18°C° 0 mm 3 mps 754 mmHg 92%
    03:00 +18°C° 0 mm 2 mps 754 mmHg 93%
    04:00 +19°C° 0 mm 2 mps 755 mmHg 91%
    05:00 +20°C° 0 mm 2 mps 755 mmHg 88%
    06:00 +21°C° 0 mm 3 mps 755 mmHg 86%
    07:00 +22°C° 0 mm 3 mps 755 mmHg 81%
    08:00 +25°C° 0 mm 3 mps 755 mmHg 76%
    09:00 +26°C° 0 mm 3 mps 754 mmHg 72%
    10:00 +27°C° 0 mm 3 mps 754 mmHg 68%
    11:00 +28°C° 0 mm 3 mps 754 mmHg 64%
    12:00 +29°C° 0 mm 3 mps 754 mmHg 60%
    13:00 +29°C° 0 mm 3 mps 754 mmHg 59%
    14:00 +29°C° 0 mm 3 mps 754 mmHg 58%
    15:00 +29°C° 0 mm 3 mps 754 mmHg 58%
    16:00 +28°C° 0 mm 3 mps 754 mmHg 61%
    17:00 +28°C° 0 mm 2 mps 754 mmHg 65%
    18:00 +27°C° 0 mm 2 mps 753 mmHg 69%
    19:00 +26°C° 0 mm 2 mps 753 mmHg 72%
    20:00 +25°C° 0 mm 2 mps 754 mmHg 75%
    21:00 +23°C° 0 mm 2 mps 754 mmHg 78%
    22:00 +23°C° 0 mm 2 mps 754 mmHg 80%
    23:00 +21°C° 0 mm 2 mps 754 mmHg 83%
    Show more